Torna al catalogo

KUIPER-00102

AttivoComunicazioniLEO
NORAD 65140·PAYLOAD·🇺🇸 United States

Lanciato Aug 11, 2025 da Cape Canaveral Space Force Station

Loading…

Prossimi Passaggi (prossime 24 ore)

TLE

AggiornatoSource: CelesTrak SupGP

Epoca: Sep 14, 2026, 18:59 UTC

1 65140C 25171J   26257.79141204  .00000293  00000+0  38406-4 0  2577
2 65140  51.8988  36.8359 0000594 126.1980   7.5658 14.79918129    19

Traccia KUIPER-00102 in tempo reale con AllMySat

Download on the App Store